Location: Shenandoah County Park
(38.9356°N, 78.4524°W)
Time: 06:05:04
(UTC-04:00)

Vanguard 1 Rocket - Pass Details

Date: 15 February 2023
Orbit: 652 x 4223 km, 34.3° (Epoch: 26 March)

Event Time Altitude Azimuth Distance (km) Brightness Sun altitude
Rises 15:09:10 0° 277° (W) 4,894 11.6 26.3°
Reaches altitude 10° 15:12:02 10° 270° (W) 4,272 11.6 25.9°
Maximum altitude 15:23:28 42° 205° (SSW) 3,633 11.9 24.2°
Drops below altitude 10° 15:43:07 10° 145° (SE) 7,096 12.0 21.3°
Sets 15:49:50 0° 139° (SE) 8,368 12.3 20.3°
